Time,TemperatureF,DewpointF,PressureIn,WindDirection,WindDirectionDegrees,WindSpeedMPH,WindSpeedGustMPH,Humidity,HourlyPrecipIn,Conditions,Clouds,dailyrainin,SoftwareType,DateUTC
2013-10-21 00:01:00,38.5,16.2,30.05,WNW,294,0.0,0.0,40,0.00,CLR,,0.00,WeatherDisplay:10.37,2013-10-21 04:01:00,
2013-10-21 00:02:00,38.5,16.2,30.05,WNW,294,0.0,0.0,40,0.00,CLR,,0.00,WeatherDisplay:10.37,2013-10-21 04:02:00,
2013-10-21 00:03:00,38.5,16.2,30.05,WNW,294,0.0,0.0,40,0.00,CLR,,0.00,WeatherDisplay:10.37,2013-10-21 04:03:00,
2013-10-21 00:05:00,38.5,16.2,30.05,WNW,294,0.0,0.0,40,0.00,CLR,,0.00,WeatherDisplay:10.37,2013-10-21 04:05:00,
2013-10-21 00:10:00,38.5,16.2,30.05,WNW,294,0.0,0.0,40,0.00,CLR,,0.00,WeatherDisplay:10.37,2013-10-21 04:10:00,
2013-10-21 00:15:00,38.3,16.1,30.05,WNW,294,0.0,0.0,40,0.00,CLR,,0.00,WeatherDisplay:10.37,2013-10-21 04:15:00,
2013-10-21 00:20:00,38.1,15.9,30.05,WNW,294,0.0,0.0,40,0.00,CLR,,0.00,WeatherDisplay:10.37,2013-10-21 04:20:00,
2013-10-21 00:25:00,38.1,15.9,30.05,WNW,294,0.0,0.0,40,0.00,CLR,,0.00,WeatherDisplay:10.37,2013-10-21 04:25:00,
2013-10-21 00:30:00,37.9,15.7,30.05,WNW,294,0.0,0.0,40,0.00,CLR,,0.00,WeatherDisplay:10.37,2013-10-21 04:30:00,
2013-10-21 00:35:00,37.9,16.3,30.05,WNW,294,0.0,0.0,41,0.00,CLR,,0.00,WeatherDisplay:10.37,2013-10-21 04:35:00,
2013-10-21 00:40:00,37.9,16.3,30.05,WNW,294,0.0,0.0,41,0.00,CLR,,0.00,WeatherDisplay:10.37,2013-10-21 04:40:00,
2013-10-21 00:45:00,37.9,16.3,30.05,WNW,294,0.0,0.0,41,0.00,CLR,,0.00,WeatherDisplay:10.37,2013-10-21 04:45:00,
2013-10-21 00:50:00,37.8,16.1,30.05,WNW,294,0.0,0.0,41,0.00,CLR,,0.00,WeatherDisplay:10.37,2013-10-21 04:50:00,
2013-10-21 00:55:00,37.6,16.0,30.05,WNW,294,0.0,0.0,41,0.00,CLR,,0.00,WeatherDisplay:10.37,2013-10-21 04:55:00,
2013-10-21 01:00:00,37.6,16.0,30.05,WNW,294,0.0,0.0,41,0.00,CLR,,0.00,WeatherDisplay:10.37,2013-10-21 05:00:00,
2013-10-21 01:05:00,37.4,15.8,30.05,WNW,294,0.0,0.0,41,0.00,CLR,,0.00,WeatherDisplay:10.37,2013-10-21 05:05:00,
2013-10-21 01:10:00,37.4,15.8,30.05,WNW,294,0.0,0.0,41,0.00,CLR,,0.00,WeatherDisplay:10.37,2013-10-21 05:10:00,
2013-10-21 01:15:00,37.2,16.2,30.05,WNW,294,0.0,0.0,42,0.00,CLR,,0.00,WeatherDisplay:10.37,2013-10-21 05:15:00,
2013-10-21 01:20:00,37.0,16.0,30.05,WNW,294,0.0,0.0,42,0.00,CLR,,0.00,WeatherDisplay:10.37,2013-10-21 05:20:00,
2013-10-21 01:25:00,37.0,16.0,30.05,WNW,294,0.0,0.0,42,0.00,CLR,,0.00,WeatherDisplay:10.37,2013-10-21 05:25:00,
2013-10-21 01:30:00,37.0,16.0,30.05,WNW,294,0.0,0.0,42,0.00,CLR,,0.00,WeatherDisplay:10.37,2013-10-21 05:30:00,
2013-10-21 01:35:00,36.9,15.9,30.05,WNW,294,0.0,0.0,42,0.00,CLR,,0.00,WeatherDisplay:10.37,2013-10-21 05:35:00,
2013-10-21 01:40:00,36.9,16.4,30.05,WNW,294,0.0,0.0,43,0.00,CLR,,0.00,WeatherDisplay:10.37,2013-10-21 05:40:00,
2013-10-21 01:45:00,36.9,16.4,30.08,WNW,294,0.0,0.0,43,0.00,CLR,,0.00,WeatherDisplay:10.37,2013-10-21 05:45:00,
2013-10-21 01:50:00,37.0,17.6,30.08,WNW,294,0.0,0.0,45,0.00,CLR,,0.00,WeatherDisplay:10.37,2013-10-21 05:50:00,
2013-10-21 01:55:00,37.2,17.3,30.08,WNW,294,0.0,0.0,44,0.00,CLR,,0.00,WeatherDisplay:10.37,2013-10-21 05:55:00,
2013-10-21 02:00:00,37.4,17.4,30.08,WNW,294,0.0,0.0,44,0.00,CLR,,0.00,WeatherDisplay:10.37,2013-10-21 06:00:00,
2013-10-21 02:05:00,37.4,17.4,30.08,WNW,294,0.0,0.0,44,0.00,CLR,,0.00,WeatherDisplay:10.37,2013-10-21 06:05:00,
2013-10-21 02:11:00,37.2,17.3,30.08,WNW,294,0.0,0.0,44,0.00,CLR,,0.00,WeatherDisplay:10.37,2013-10-21 06:11:00,
2013-10-21 02:16:00,37.2,18.3,30.08,WNW,294,0.0,0.0,46,0.00,CLR,,0.00,WeatherDisplay:10.37,2013-10-21 06:16:00,
2013-10-21 02:21:00,37.4,19.0,30.08,WNW,294,0.0,0.0,47,0.00,CLR,,0.00,WeatherDisplay:10.37,2013-10-21 06:21:00,
2013-10-21 02:26:00,37.4,19.0,30.08,WNW,294,0.0,0.0,47,0.00,CLR,,0.00,WeatherDisplay:10.37,2013-10-21 06:26:00,
2013-10-21 02:31:00,37.4,19.0,30.08,WNW,294,0.0,0.0,47,0.00,CLR,,0.00,WeatherDisplay:10.37,2013-10-21 06:31:00,
2013-10-21 02:36:00,37.4,19.0,30.08,WNW,294,0.0,0.0,47,0.00,CLR,,0.00,WeatherDisplay:10.37,2013-10-21 06:36:00,
2013-10-21 02:41:00,37.4,19.0,30.08,WNW,294,0.0,0.0,47,0.00,CLR,,0.00,WeatherDisplay:10.37,2013-10-21 06:41:00,
2013-10-21 02:46:00,37.4,19.5,30.08,WNW,294,0.0,0.0,48,0.00,CLR,,0.00,WeatherDisplay:10.37,2013-10-21 06:46:00,
2013-10-21 02:51:00,37.4,19.5,30.08,WNW,294,0.0,0.0,48,0.00,CLR,,0.00,WeatherDisplay:10.37,2013-10-21 06:51:00,
2013-10-21 02:56:00,37.4,19.5,30.08,WNW,294,0.0,0.0,48,0.00,CLR,,0.00,WeatherDisplay:10.37,2013-10-21 06:56:00,
2013-10-21 03:01:00,37.2,19.3,30.08,WNW,294,0.0,0.0,48,0.00,CLR,,0.00,WeatherDisplay:10.37,2013-10-21 07:01:00,
2013-10-21 03:06:00,37.0,19.1,30.08,WNW,294,0.0,0.0,48,0.00,CLR,,0.00,WeatherDisplay:10.37,2013-10-21 07:06:00,
2013-10-21 03:11:00,36.9,19.0,30.08,WNW,294,0.0,0.0,48,0.00,CLR,,0.00,WeatherDisplay:10.37,2013-10-21 07:11:00,
2013-10-21 03:16:00,36.9,19.0,30.08,WNW,294,0.0,0.0,48,0.00,CLR,,0.00,WeatherDisplay:10.37,2013-10-21 07:16:00,
2013-10-21 03:21:00,36.7,18.3,30.08,WNW,294,0.0,0.0,47,0.00,CLR,,0.00,WeatherDisplay:10.37,2013-10-21 07:21:00,
2013-10-21 03:26:00,36.7,18.3,30.08,WNW,294,0.0,0.0,47,0.00,CLR,,0.00,WeatherDisplay:10.37,2013-10-21 07:26:00,
2013-10-21 03:31:00,36.5,18.2,30.08,WNW,294,0.0,0.0,47,0.00,CLR,,0.00,WeatherDisplay:10.37,2013-10-21 07:31:00,
2013-10-21 03:36:00,36.3,18.0,30.08,WNW,294,0.0,0.0,47,0.00,CLR,,0.00,WeatherDisplay:10.37,2013-10-21 07:36:00,
2013-10-21 03:41:00,36.1,17.8,30.08,WNW,294,0.0,0.0,47,0.00,CLR,,0.00,WeatherDisplay:10.37,2013-10-21 07:41:00,
2013-10-21 03:46:00,36.1,18.3,30.08,WNW,294,0.0,0.0,48,0.00,CLR,,0.00,WeatherDisplay:10.37,2013-10-21 07:46:00,
2013-10-21 03:51:00,36.0,17.7,30.08,WNW,294,0.0,0.0,47,0.00,CLR,,0.00,WeatherDisplay:10.37,2013-10-21 07:51:00,
2013-10-21 03:56:00,35.8,18.0,30.08,WNW,294,0.0,0.0,48,0.00,CLR,,0.00,WeatherDisplay:10.37,2013-10-21 07:56:00,
2013-10-21 04:01:00,35.8,18.0,30.08,WNW,294,0.0,0.0,48,0.00,CLR,,0.00,WeatherDisplay:10.37,2013-10-21 08:01:00,
2013-10-21 04:06:00,35.8,18.0,30.08,WNW,294,0.0,0.0,48,0.00,CLR,,0.00,WeatherDisplay:10.37,2013-10-21 08:06:00,
2013-10-21 04:11:00,35.6,17.8,30.08,WNW,294,0.0,0.0,48,0.00,CLR,,0.00,WeatherDisplay:10.37,2013-10-21 08:11:00,
2013-10-21 04:16:00,35.6,17.8,30.08,WNW,294,0.0,0.0,48,0.00,CLR,,0.00,WeatherDisplay:10.37,2013-10-21 08:16:00,
2013-10-21 04:21:00,35.6,17.8,30.08,WNW,294,0.0,0.0,48,0.00,CLR,,0.00,WeatherDisplay:10.37,2013-10-21 08:21:00,
2013-10-21 04:26:00,35.6,17.8,30.08,WNW,294,0.0,0.0,48,0.00,CLR,,0.00,WeatherDisplay:10.37,2013-10-21 08:26:00,
2013-10-21 04:31:00,35.6,17.8,30.11,WNW,294,0.0,0.0,48,0.00,CLR,,0.00,WeatherDisplay:10.37,2013-10-21 08:31:00,
2013-10-21 04:36:00,35.6,17.8,30.11,WNW,294,0.0,0.0,48,0.00,CLR,,0.00,WeatherDisplay:10.37,2013-10-21 08:36:00,
2013-10-21 04:41:00,35.6,17.8,30.11,WNW,294,0.0,0.0,48,0.00,CLR,,0.00,WeatherDisplay:10.37,2013-10-21 08:41:00,
2013-10-21 04:46:00,35.6,18.3,30.11,WNW,294,0.0,0.0,49,0.00,CLR,,0.00,WeatherDisplay:10.37,2013-10-21 08:46:00,
2013-10-21 04:51:00,35.6,17.8,30.11,WNW,294,0.0,0.0,48,0.00,CLR,,0.00,WeatherDisplay:10.37,2013-10-21 08:51:00,
2013-10-21 04:56:00,35.4,18.1,30.11,WNW,294,0.0,0.0,49,0.00,CLR,,0.00,WeatherDisplay:10.37,2013-10-21 08:56:00,
2013-10-21 05:01:00,35.2,18.0,30.11,WNW,294,0.0,0.0,49,0.00,CLR,,0.00,WeatherDisplay:10.37,2013-10-21 09:01:00,
2013-10-21 05:06:00,35.1,17.8,30.11,WNW,294,0.0,0.0,49,0.00,CLR,,0.00,WeatherDisplay:10.37,2013-10-21 09:06:00,
2013-10-21 05:11:00,35.1,18.3,30.11,WNW,294,0.0,0.0,50,0.00,CLR,,0.00,WeatherDisplay:10.37,2013-10-21 09:11:00,
2013-10-21 05:16:00,35.1,17.8,30.11,WNW,294,0.0,0.0,49,0.00,CLR,,0.00,WeatherDisplay:10.37,2013-10-21 09:16:00,
2013-10-21 05:21:00,34.9,17.6,30.11,WNW,294,0.0,0.0,49,0.00,CLR,,0.00,WeatherDisplay:10.37,2013-10-21 09:21:00,
2013-10-21 05:26:00,34.9,17.6,30.11,WNW,294,0.0,0.0,49,0.00,CLR,,0.00,WeatherDisplay:10.37,2013-10-21 09:26:00,
2013-10-21 05:31:00,34.7,17.5,30.11,WNW,294,0.0,0.0,49,0.00,CLR,,0.00,WeatherDisplay:10.37,2013-10-21 09:31:00,
2013-10-21 05:36:00,34.7,17.9,30.11,WNW,294,0.0,0.0,50,0.00,CLR,,0.00,WeatherDisplay:10.37,2013-10-21 09:36:00,
2013-10-21 05:41:00,34.7,17.9,30.11,WNW,294,0.0,0.0,50,0.00,CLR,,0.00,WeatherDisplay:10.37,2013-10-21 09:41:00,
2013-10-21 05:46:00,34.7,17.9,30.11,WNW,294,0.0,0.0,50,0.00,CLR,,0.00,WeatherDisplay:10.37,2013-10-21 09:46:00,
2013-10-21 05:51:00,34.5,17.8,30.11,WNW,294,0.0,0.0,50,0.00,CLR,,0.00,WeatherDisplay:10.37,2013-10-21 09:51:00,
2013-10-21 05:56:00,34.5,17.8,30.11,WNW,294,0.0,0.0,50,0.00,CLR,,0.00,WeatherDisplay:10.37,2013-10-21 09:56:00,
2013-10-21 06:01:00,34.5,17.8,30.11,WNW,294,0.0,0.0,50,0.00,CLR,,0.00,WeatherDisplay:10.37,2013-10-21 10:01:00,
2013-10-21 06:06:00,34.5,17.8,30.11,WNW,294,0.0,0.0,50,0.00,CLR,,0.00,WeatherDisplay:10.37,2013-10-21 10:06:00,
2013-10-21 06:11:00,34.5,17.8,30.11,WNW,294,0.0,0.0,50,0.00,CLR,,0.00,WeatherDisplay:10.37,2013-10-21 10:11:00,
2013-10-21 06:16:00,34.3,17.6,30.11,WNW,294,0.0,0.0,50,0.00,CLR,,0.00,WeatherDisplay:10.37,2013-10-21 10:16:00,
2013-10-21 06:21:00,34.3,17.6,30.11,WNW,294,0.0,0.0,50,0.00,CLR,,0.00,WeatherDisplay:10.37,2013-10-21 10:21:00,
2013-10-21 06:26:00,34.3,17.6,30.11,WNW,294,0.0,0.0,50,0.00,CLR,,0.00,WeatherDisplay:10.37,2013-10-21 10:26:00,
2013-10-21 06:31:00,34.3,17.6,30.11,WNW,294,0.0,0.0,50,0.00,CLR,,0.00,WeatherDisplay:10.37,2013-10-21 10:31:00,
2013-10-21 06:36:00,34.3,17.6,30.11,WNW,294,0.0,0.0,50,0.00,CLR,,0.00,WeatherDisplay:10.37,2013-10-21 10:36:00,
2013-10-21 06:41:00,34.3,17.6,30.11,WNW,294,0.0,0.0,50,0.00,CLR,,0.00,WeatherDisplay:10.37,2013-10-21 10:41:00,
2013-10-21 06:46:00,34.2,17.4,30.11,WNW,294,0.0,0.0,50,0.00,CLR,,0.00,WeatherDisplay:10.37,2013-10-21 10:46:00,
2013-10-21 06:51:00,34.2,17.4,30.11,WNW,294,0.0,0.0,50,0.00,CLR,,0.00,WeatherDisplay:10.37,2013-10-21 10:51:00,
2013-10-21 06:56:00,34.3,17.6,30.11,WNW,294,0.0,0.0,50,0.00,CLR,,0.00,WeatherDisplay:10.37,2013-10-21 10:56:00,
2013-10-21 07:01:00,34.3,17.6,30.11,WNW,294,0.0,0.0,50,0.00,CLR,,0.00,WeatherDisplay:10.37,2013-10-21 11:01:00,
2013-10-21 07:06:00,34.2,17.4,30.11,WNW,294,0.0,0.0,50,0.00,CLR,,0.00,WeatherDisplay:10.37,2013-10-21 11:06:00,
2013-10-21 07:11:00,34.2,17.4,30.11,WNW,294,0.0,0.0,50,0.00,CLR,,0.00,WeatherDisplay:10.37,2013-10-21 11:11:00,
2013-10-21 07:16:00,34.2,17.4,30.14,WNW,294,0.0,0.0,50,0.00,CLR,,0.00,WeatherDisplay:10.37,2013-10-21 11:16:00,
2013-10-21 07:21:00,34.2,17.4,30.14,WNW,294,0.0,0.0,50,0.00,CLR,,0.00,WeatherDisplay:10.37,2013-10-21 11:21:00,
2013-10-21 07:26:00,34.2,17.4,30.14,WNW,294,0.0,0.0,50,0.00,CLR,,0.00,WeatherDisplay:10.37,2013-10-21 11:26:00,
2013-10-21 07:31:00,34.3,17.6,30.14,WNW,294,0.0,0.0,50,0.00,CLR,,0.00,WeatherDisplay:10.37,2013-10-21 11:31:00,
2013-10-21 07:36:00,34.3,17.6,30.14,WNW,294,0.0,0.0,50,0.00,CLR,,0.00,WeatherDisplay:10.37,2013-10-21 11:36:00,
2013-10-21 07:41:00,34.5,17.8,30.14,WNW,294,0.0,0.0,50,0.00,CLR,,0.00,WeatherDisplay:10.37,2013-10-21 11:41:00,
2013-10-21 07:46:00,34.5,17.8,30.14,WNW,294,0.0,0.0,50,0.00,CLR,,0.00,WeatherDisplay:10.37,2013-10-21 11:46:00,
2013-10-21 07:51:00,34.7,17.9,30.14,WNW,294,0.0,0.0,50,0.00,CLR,,0.00,WeatherDisplay:10.37,2013-10-21 11:51:00,
2013-10-21 07:56:00,34.9,18.1,30.14,WNW,294,0.0,0.0,50,0.00,CLR,,0.00,WeatherDisplay:10.37,2013-10-21 11:56:00,
2013-10-21 08:01:00,35.2,18.4,30.14,WNW,294,0.0,0.0,50,0.00,CLR,,0.00,WeatherDisplay:10.37,2013-10-21 12:01:00,
2013-10-21 08:06:00,35.4,18.6,30.14,WNW,294,0.0,0.0,50,0.00,CLR,,0.00,WeatherDisplay:10.37,2013-10-21 12:06:00,
2013-10-21 08:11:00,35.8,18.5,30.14,WNW,294,0.0,0.0,49,0.00,CLR,,0.00,WeatherDisplay:10.37,2013-10-21 12:11:00,
2013-10-21 08:16:00,36.1,19.3,30.14,WNW,294,0.0,0.0,50,0.00,CLR,,0.00,WeatherDisplay:10.37,2013-10-21 12:16:00,
2013-10-21 08:21:00,36.5,19.6,30.14,WNW,294,0.0,0.0,50,0.00,CLR,,0.00,WeatherDisplay:10.37,2013-10-21 12:21:00,
2013-10-21 08:26:00,37.0,20.1,30.14,WNW,294,0.0,0.0,50,0.00,CLR,,0.00,WeatherDisplay:10.37,2013-10-21 12:26:00,
2013-10-21 08:31:00,37.4,20.0,30.14,WNW,294,0.0,0.0,49,0.00,CLR,,0.00,WeatherDisplay:10.37,2013-10-21 12:31:00,
2013-10-21 08:36:00,37.9,20.5,30.14,WNW,294,0.0,0.0,49,0.00,CLR,,0.00,WeatherDisplay:10.37,2013-10-21 12:36:00,
2013-10-21 08:41:00,38.7,21.1,30.14,WNW,294,0.0,0.0,49,0.00,CLR,,0.00,WeatherDisplay:10.37,2013-10-21 12:41:00,
2013-10-21 08:46:00,39.4,21.8,30.14,WNW,294,0.0,0.0,49,0.00,CLR,,0.00,WeatherDisplay:10.37,2013-10-21 12:46:00,
2013-10-21 08:51:00,40.1,22.4,30.14,WNW,294,0.0,0.0,49,0.00,CLR,,0.00,WeatherDisplay:10.37,2013-10-21 12:51:00,
2013-10-21 08:56:00,41.0,23.3,30.14,WNW,294,0.0,0.0,49,0.00,CLR,,0.00,WeatherDisplay:10.37,2013-10-21 12:56:00,
2013-10-21 09:01:00,42.8,24.9,30.14,WNW,294,0.0,0.0,49,0.00,CLR,,0.00,WeatherDisplay:10.37,2013-10-21 13:01:00,
2013-10-21 09:06:00,43.7,24.8,30.14,WNW,294,0.0,0.0,47,0.00,CLR,,0.00,WeatherDisplay:10.37,2013-10-21 13:06:00,
2013-10-21 09:11:00,44.8,25.2,30.14,WNW,294,0.0,0.0,46,0.00,CLR,,0.00,WeatherDisplay:10.37,2013-10-21 13:11:00,
2013-10-21 09:16:00,46.0,26.9,30.14,WNW,294,0.0,0.0,47,0.00,CLR,,0.00,WeatherDisplay:10.37,2013-10-21 13:16:00,
2013-10-21 09:21:00,47.3,28.1,30.14,WNW,295,0.0,0.0,47,0.00,CLR,,0.00,WeatherDisplay:10.37,2013-10-21 13:21:00,
2013-10-21 09:26:00,48.0,27.1,30.14,WNW,295,0.0,0.0,44,0.00,CLR,,0.00,WeatherDisplay:10.37,2013-10-21 13:26:00,
2013-10-21 09:31:00,49.1,25.8,30.14,WNW,295,0.0,0.0,40,0.00,CLR,,0.00,WeatherDisplay:10.37,2013-10-21 13:31:00,
2013-10-21 09:36:00,50.4,23.0,30.14,WNW,295,0.0,0.0,34,0.00,CLR,,0.00,WeatherDisplay:10.37,2013-10-21 13:36:00,
2013-10-21 09:41:00,50.2,20.7,30.14,WNW,295,0.0,0.0,31,0.00,CLR,,0.00,WeatherDisplay:10.37,2013-10-21 13:41:00,
2013-10-21 09:46:00,50.2,20.7,30.14,WNW,295,0.0,0.0,31,0.00,CLR,,0.00,WeatherDisplay:10.37,2013-10-21 13:46:00,
2013-10-21 09:51:00,50.2,20.7,30.14,WNW,295,0.0,0.0,31,0.00,CLR,,0.00,WeatherDisplay:10.37,2013-10-21 13:51:00,
2013-10-21 09:56:00,50.5,21.0,30.14,WNW,295,0.0,0.0,31,0.00,CLR,,0.00,WeatherDisplay:10.37,2013-10-21 13:56:00,
2013-10-21 10:01:00,50.7,21.1,30.14,WNW,295,0.0,0.0,31,0.00,CLR,,0.00,WeatherDisplay:10.37,2013-10-21 14:01:00,
2013-10-21 10:06:00,51.3,20.0,30.14,WNW,295,0.0,0.0,29,0.00,CLR,,0.00,WeatherDisplay:10.37,2013-10-21 14:06:00,
2013-10-21 10:11:00,51.8,19.7,30.14,WNW,295,0.0,0.0,28,0.00,CLR,,0.00,WeatherDisplay:10.37,2013-10-21 14:11:00,
2013-10-21 10:16:00,52.3,20.2,30.14,WNW,295,0.0,0.0,28,0.00,CLR,,0.00,WeatherDisplay:10.37,2013-10-21 14:16:00,
2013-10-21 10:21:00,53.1,20.8,30.14,WNW,295,0.0,0.0,28,0.00,CLR,,0.00,WeatherDisplay:10.37,2013-10-21 14:21:00,
2013-10-21 10:26:00,53.8,21.4,30.14,WNW,295,0.0,0.0,28,0.00,CLR,,0.00,WeatherDisplay:10.37,2013-10-21 14:26:00,
2013-10-21 10:31:00,54.3,21.9,30.14,NNE,12,0.0,0.0,28,0.00,CLR,,0.00,WeatherDisplay:10.37,2013-10-21 14:31:00,
2013-10-21 10:36:00,54.9,22.3,30.14,NNE,12,0.0,0.0,28,0.00,CLR,,0.00,WeatherDisplay:10.37,2013-10-21 14:36:00,
2013-10-21 10:41:00,55.6,22.1,30.14,NNE,12,0.0,0.0,27,0.00,CLR,,0.00,WeatherDisplay:10.37,2013-10-21 14:41:00,
2013-10-21 10:46:00,55.9,22.4,30.14,NNE,12,0.0,0.0,27,0.00,CLR,,0.00,WeatherDisplay:10.37,2013-10-21 14:46:00,
2013-10-21 10:51:00,56.1,22.6,30.14,NNE,20,2.3,0.0,27,0.00,CLR,,0.00,WeatherDisplay:10.37,2013-10-21 14:51:00,
2013-10-21 10:56:00,56.3,22.7,30.14,NNE,20,0.0,0.0,27,0.00,CLR,,0.00,WeatherDisplay:10.37,2013-10-21 14:56:00,
2013-10-21 11:01:00,56.7,23.0,30.14,NW,314,2.3,0.0,27,0.00,CLR,,0.00,WeatherDisplay:10.37,2013-10-21 15:01:00,
2013-10-21 11:06:00,57.0,23.3,30.14,WSW,248,0.0,0.0,27,0.00,CLR,,0.00,WeatherDisplay:10.37,2013-10-21 15:06:00,
2013-10-21 11:11:00,57.2,23.5,30.14,WSW,257,3.5,3.5,27,0.00,CLR,,0.00,WeatherDisplay:10.37,2013-10-21 15:11:00,
2013-10-21 11:16:00,57.6,23.8,30.14,NW,309,3.5,0.0,27,0.00,CLR,,0.00,WeatherDisplay:10.37,2013-10-21 15:16:00,
2013-10-21 11:21:00,57.9,24.1,30.14,NW,304,3.5,3.6,27,0.00,CLR,,0.00,WeatherDisplay:10.37,2013-10-21 15:21:00,
2013-10-21 11:26:00,58.1,24.3,30.14,West,266,3.5,3.5,27,0.00,CLR,,0.00,WeatherDisplay:10.37,2013-10-21 15:26:00,
2013-10-21 11:31:00,58.3,24.4,30.14,West,277,2.3,0.0,27,0.00,CLR,,0.00,WeatherDisplay:10.37,2013-10-21 15:31:00,
2013-10-21 11:36:00,58.6,24.7,30.14,North,7,0.0,0.0,27,0.00,CLR,,0.00,WeatherDisplay:10.37,2013-10-21 15:36:00,
2013-10-21 11:41:00,59.0,25.0,30.14,West,281,5.8,5.8,27,0.00,CLR,,0.00,WeatherDisplay:10.37,2013-10-21 15:41:00,
2013-10-21 11:46:00,59.2,25.2,30.14,North,8,3.5,3.5,27,0.00,CLR,,0.00,WeatherDisplay:10.37,2013-10-21 15:46:00,
2013-10-21 11:51:00,59.2,25.2,30.14,North,0,6.3,6.3,27,0.00,CLR,,0.00,WeatherDisplay:10.37,2013-10-21 15:51:00,
2013-10-21 11:56:00,59.4,25.3,30.14,NNW,342,5.4,0.0,27,0.00,CLR,,0.00,WeatherDisplay:10.37,2013-10-21 15:56:00,
2013-10-21 12:01:00,59.7,25.6,30.11,WNW,293,4.6,4.6,27,0.00,CLR,,0.00,WeatherDisplay:10.37,2013-10-21 16:01:00,
2013-10-21 12:06:00,60.1,26.0,30.11,NW,320,3.5,3.5,27,0.00,CLR,,0.00,WeatherDisplay:10.37,2013-10-21 16:06:00,
2013-10-21 12:11:00,60.4,26.3,30.11,WSW,251,2.3,0.0,27,0.00,CLR,,0.00,WeatherDisplay:10.37,2013-10-21 16:11:00,
2013-10-21 12:16:00,61.0,25.8,30.11,NW,310,2.3,0.0,26,0.00,CLR,,0.00,WeatherDisplay:10.37,2013-10-21 16:16:00,
2013-10-21 12:21:00,61.3,26.1,30.11,West,275,4.6,4.6,26,0.00,CLR,,0.00,WeatherDisplay:10.37,2013-10-21 16:21:00,
2013-10-21 12:26:00,61.7,26.4,30.11,West,276,2.3,2.3,26,0.00,CLR,,0.00,WeatherDisplay:10.37,2013-10-21 16:26:00,
2013-10-21 12:31:00,61.9,26.6,30.11,West,279,3.5,3.5,26,0.00,CLR,,0.00,WeatherDisplay:10.37,2013-10-21 16:31:00,
2013-10-21 12:36:00,61.9,26.6,30.11,North,2,0.0,0.0,26,0.00,CLR,,0.00,WeatherDisplay:10.37,2013-10-21 16:36:00,
2013-10-21 12:41:00,62.2,26.9,30.11,NW,315,8.1,8.1,26,0.00,CLR,,0.00,WeatherDisplay:10.37,2013-10-21 16:41:00,
2013-10-21 12:46:00,62.4,27.0,30.11,West,262,4.6,4.6,26,0.00,CLR,,0.00,WeatherDisplay:10.37,2013-10-21 16:46:00,
2013-10-21 12:51:00,62.6,27.2,30.11,NNW,338,3.5,3.5,26,0.00,CLR,,0.00,WeatherDisplay:10.37,2013-10-21 16:51:00,
2013-10-21 12:56:00,63.1,27.7,30.11,West,262,3.5,3.5,26,0.00,CLR,,0.00,WeatherDisplay:10.37,2013-10-21 16:56:00,
2013-10-21 13:01:00,62.8,27.4,30.08,SW,229,5.8,5.8,26,0.00,CLR,,0.00,WeatherDisplay:10.37,2013-10-21 17:01:00,
2013-10-21 13:06:00,63.3,27.8,30.08,WSW,252,5.8,5.8,26,0.00,CLR,,0.00,WeatherDisplay:10.37,2013-10-21 17:06:00,
2013-10-21 13:11:00,64.2,28.6,30.08,West,262,5.8,5.8,26,0.00,CLR,,0.00,WeatherDisplay:10.37,2013-10-21 17:11:00,
2013-10-21 13:16:00,64.0,28.4,30.08,West,268,2.3,0.0,26,0.00,CLR,,0.00,WeatherDisplay:10.37,2013-10-21 17:16:00,
2013-10-21 13:21:00,64.2,28.6,30.08,NW,318,4.0,4.0,26,0.00,CLR,,0.00,WeatherDisplay:10.37,2013-10-21 17:21:00,
2013-10-21 13:26:00,67.1,30.1,30.08,West,277,3.5,0.0,25,0.00,CLR,,0.00,WeatherDisplay:10.37,2013-10-21 17:26:00,
2013-10-21 13:31:00,70.0,31.5,30.08,WSW,239,3.5,3.6,24,0.00,CLR,,0.00,WeatherDisplay:10.37,2013-10-21 17:31:00,
2013-10-21 13:36:00,66.9,29.9,30.08,WNW,298,3.5,3.5,25,0.00,CLR,,0.00,WeatherDisplay:10.37,2013-10-21 17:36:00,
2013-10-21 13:41:00,65.5,28.7,30.08,West,270,3.6,3.6,25,0.00,CLR,,0.00,WeatherDisplay:10.37,2013-10-21 17:41:00,
2013-10-21 13:46:00,65.1,28.4,30.08,WNW,290,5.8,5.8,25,0.00,CLR,,0.00,WeatherDisplay:10.37,2013-10-21 17:46:00,
2013-10-21 13:51:00,65.1,28.4,30.08,West,279,3.5,3.5,25,0.00,CLR,,0.00,WeatherDisplay:10.37,2013-10-21 17:51:00,
2013-10-21 13:56:00,64.9,28.2,30.08,SW,223,2.3,0.0,25,0.00,CLR,,0.00,WeatherDisplay:10.37,2013-10-21 17:56:00,
2013-10-21 14:01:00,66.9,29.9,30.08,NW,311,2.3,0.0,25,0.00,CLR,,0.00,WeatherDisplay:10.37,2013-10-21 18:01:00,
2013-10-21 14:06:00,68.0,30.8,30.08,SW,214,4.6,4.6,25,0.00,CLR,,0.00,WeatherDisplay:10.37,2013-10-21 18:06:00,
2013-10-21 14:11:00,66.9,29.9,30.08,NNW,332,3.5,3.5,25,0.00,CLR,,0.00,WeatherDisplay:10.37,2013-10-21 18:11:00,
2013-10-21 14:16:00,65.7,28.8,30.05,WSW,257,3.5,3.5,25,0.00,CLR,,0.00,WeatherDisplay:10.37,2013-10-21 18:16:00,
2013-10-21 14:21:00,65.3,28.5,30.05,NNW,335,2.7,0.0,25,0.00,CLR,,0.00,WeatherDisplay:10.37,2013-10-21 18:21:00,
2013-10-21 14:26:00,65.5,28.7,30.05,West,267,3.5,0.0,25,0.00,CLR,,0.00,WeatherDisplay:10.37,2013-10-21 18:26:00,
2013-10-21 14:31:00,65.5,28.7,30.05,NW,318,3.5,0.0,25,0.00,CLR,,0.00,WeatherDisplay:10.37,2013-10-21 18:31:00,
2013-10-21 14:36:00,65.5,28.7,30.05,WNW,300,2.3,0.0,25,0.00,CLR,,0.00,WeatherDisplay:10.37,2013-10-21 18:36:00,
2013-10-21 14:41:00,65.5,28.7,30.05,WSW,245,3.5,3.5,25,0.00,CLR,,0.00,WeatherDisplay:10.37,2013-10-21 18:41:00,
2013-10-21 14:46:00,65.5,28.7,30.05,South,190,0.0,0.0,25,0.00,CLR,,0.00,WeatherDisplay:10.37,2013-10-21 18:46:00,
2013-10-21 14:51:00,65.3,28.5,30.05,WSW,237,3.5,0.0,25,0.00,CLR,,0.00,WeatherDisplay:10.37,2013-10-21 18:51:00,
2013-10-21 14:56:00,65.1,28.4,30.05,WSW,237,2.3,2.3,25,0.00,CLR,,0.00,WeatherDisplay:10.37,2013-10-21 18:56:00,
2013-10-21 15:01:00,65.1,28.4,30.05,NW,320,2.3,0.0,25,0.00,CLR,,0.00,WeatherDisplay:10.37,2013-10-21 19:01:00,
2013-10-21 15:06:00,64.9,28.2,30.05,SW,232,3.1,0.0,25,0.00,CLR,,0.00,WeatherDisplay:10.37,2013-10-21 19:06:00,
2013-10-21 15:11:00,64.9,28.2,30.05,SE,133,2.3,0.0,25,0.00,CLR,,0.00,WeatherDisplay:10.37,2013-10-21 19:11:00,
2013-10-21 15:16:00,65.5,28.7,30.05,West,263,2.7,0.0,25,0.00,CLR,,0.00,WeatherDisplay:10.37,2013-10-21 19:16:00,
2013-10-21 15:21:00,66.4,29.5,30.05,NW,307,2.3,0.0,25,0.00,CLR,,0.00,WeatherDisplay:10.37,2013-10-21 19:21:00,
2013-10-21 15:26:00,65.8,29.0,30.05,NW,307,3.1,0.0,25,0.00,CLR,,0.00,WeatherDisplay:10.37,2013-10-21 19:26:00,
2013-10-21 15:31:00,65.5,28.7,30.05,West,272,4.6,4.6,25,0.00,CLR,,0.00,WeatherDisplay:10.37,2013-10-21 19:31:00,
2013-10-21 15:36:00,65.3,28.5,30.05,West,279,0.0,0.0,25,0.00,CLR,,0.00,WeatherDisplay:10.37,2013-10-21 19:36:00,
2013-10-21 15:41:00,65.1,28.4,30.05,WNW,287,2.3,0.0,25,0.00,CLR,,0.00,WeatherDisplay:10.37,2013-10-21 19:41:00,
2013-10-21 15:46:00,65.1,28.4,30.05,South,182,0.0,0.0,25,0.00,CLR,,0.00,WeatherDisplay:10.37,2013-10-21 19:46:00,
2013-10-21 15:51:00,65.3,28.5,30.05,North,1,3.5,0.0,25,0.00,CLR,,0.00,WeatherDisplay:10.37,2013-10-21 19:51:00,
2013-10-21 15:56:00,67.1,30.1,30.05,South,174,3.5,0.0,25,0.00,CLR,,0.00,WeatherDisplay:10.37,2013-10-21 19:56:00,
2013-10-21 16:01:00,66.2,29.3,30.05,SW,220,2.7,0.0,25,0.00,CLR,,0.00,WeatherDisplay:10.37,2013-10-21 20:01:00,
2013-10-21 16:06:00,65.5,28.7,30.05,NNW,335,0.0,0.0,25,0.00,CLR,,0.00,WeatherDisplay:10.37,2013-10-21 20:06:00,
2013-10-21 16:11:00,65.1,28.4,30.05,South,191,2.3,0.0,25,0.00,CLR,,0.00,WeatherDisplay:10.37,2013-10-21 20:11:00,
2013-10-21 16:16:00,65.3,28.5,30.05,SSE,158,2.3,0.0,25,0.00,CLR,,0.00,WeatherDisplay:10.37,2013-10-21 20:16:00,
2013-10-21 16:21:00,65.1,28.4,30.05,SSE,167,3.5,0.0,25,0.00,CLR,,0.00,WeatherDisplay:10.37,2013-10-21 20:21:00,
2013-10-21 16:26:00,66.9,29.9,30.05,NNW,333,2.3,0.0,25,0.00,CLR,,0.00,WeatherDisplay:10.37,2013-10-21 20:26:00,
2013-10-21 16:31:00,67.1,30.1,30.05,SW,220,3.5,0.0,25,0.00,CLR,,0.00,WeatherDisplay:10.37,2013-10-21 20:31:00,
2013-10-21 16:36:00,66.6,29.6,30.05,ENE,72,0.0,0.0,25,0.00,CLR,,0.00,WeatherDisplay:10.37,2013-10-21 20:36:00,
2013-10-21 16:41:00,65.7,28.8,30.05,ENE,72,0.0,0.0,25,0.00,CLR,,0.00,WeatherDisplay:10.37,2013-10-21 20:41:00,
2013-10-21 16:46:00,64.6,27.9,30.05,WNW,287,3.5,3.5,25,0.00,CLR,,0.00,WeatherDisplay:10.37,2013-10-21 20:46:00,
2013-10-21 16:51:00,64.6,27.9,30.05,WNW,286,5.8,5.8,25,0.00,CLR,,0.00,WeatherDisplay:10.37,2013-10-21 20:51:00,
2013-10-21 16:56:00,64.2,28.6,30.05,NNE,23,3.5,3.5,26,0.00,CLR,,0.00,WeatherDisplay:10.37,2013-10-21 20:56:00,
2013-10-21 17:01:00,63.7,28.1,30.05,NE,52,0.0,0.0,26,0.00,CLR,,0.00,WeatherDisplay:10.37,2013-10-21 21:01:00,
2013-10-21 17:06:00,63.3,27.8,30.05,NNE,30,0.0,0.0,26,0.00,CLR,,0.00,WeatherDisplay:10.37,2013-10-21 21:06:00,
2013-10-21 17:11:00,63.0,27.5,30.05,NNE,31,0.0,0.0,26,0.00,CLR,,0.00,WeatherDisplay:10.37,2013-10-21 21:11:00,
2013-10-21 17:16:00,62.6,27.2,30.05,NNE,31,0.0,0.0,26,0.00,CLR,,0.00,WeatherDisplay:10.37,2013-10-21 21:16:00,
2013-10-21 17:21:00,62.1,26.7,30.05,NNE,31,0.0,0.0,26,0.00,CLR,,0.00,WeatherDisplay:10.37,2013-10-21 21:21:00,
2013-10-21 17:26:00,61.9,26.6,30.05,NNE,31,0.0,0.0,26,0.00,CLR,,0.00,WeatherDisplay:10.37,2013-10-21 21:26:00,
2013-10-21 17:31:00,61.3,26.1,30.05,NNE,31,0.0,0.0,26,0.00,CLR,,0.00,WeatherDisplay:10.37,2013-10-21 21:31:00,
2013-10-21 17:36:00,61.0,25.8,30.05,NNE,31,0.0,0.0,26,0.00,CLR,,0.00,WeatherDisplay:10.37,2013-10-21 21:36:00,
2013-10-21 17:41:00,60.6,26.4,30.05,NNE,31,0.0,0.0,27,0.00,CLR,,0.00,WeatherDisplay:10.37,2013-10-21 21:41:00,
2013-10-21 17:46:00,60.1,26.0,30.05,NNE,31,0.0,0.0,27,0.00,CLR,,0.00,WeatherDisplay:10.37,2013-10-21 21:46:00,
2013-10-21 17:51:00,59.7,25.6,30.05,NNE,31,0.0,0.0,27,0.00,CLR,,0.00,WeatherDisplay:10.37,2013-10-21 21:51:00,
2013-10-21 17:56:00,59.2,25.2,30.05,NNE,31,0.0,0.0,27,0.00,CLR,,0.00,WeatherDisplay:10.37,2013-10-21 21:56:00,
2013-10-21 18:01:00,58.8,24.9,30.05,NNE,31,0.0,0.0,27,0.00,CLR,,0.00,WeatherDisplay:10.37,2013-10-21 22:01:00,
2013-10-21 18:06:00,58.3,24.4,30.05,NNE,31,0.0,0.0,27,0.00,CLR,,0.00,WeatherDisplay:10.37,2013-10-21 22:06:00,
2013-10-21 18:11:00,57.7,23.9,30.05,NNE,31,0.0,0.0,27,0.00,CLR,,0.00,WeatherDisplay:10.37,2013-10-21 22:11:00,
2013-10-21 18:16:00,57.4,23.6,30.05,NNE,31,0.0,0.0,27,0.00,CLR,,0.00,WeatherDisplay:10.37,2013-10-21 22:16:00,
2013-10-21 18:21:00,56.8,23.2,30.05,NNE,31,0.0,0.0,27,0.00,CLR,,0.00,WeatherDisplay:10.37,2013-10-21 22:21:00,
2013-10-21 18:26:00,56.5,22.9,30.05,NNE,31,0.0,0.0,27,0.00,CLR,,0.00,WeatherDisplay:10.37,2013-10-21 22:26:00,
2013-10-21 18:31:00,56.1,22.6,30.05,NNE,31,0.0,0.0,27,0.00,CLR,,0.00,WeatherDisplay:10.37,2013-10-21 22:31:00,
2013-10-21 18:36:00,55.8,22.2,30.05,NNE,31,0.0,0.0,27,0.00,CLR,,0.00,WeatherDisplay:10.37,2013-10-21 22:36:00,
2013-10-21 18:41:00,55.2,22.6,30.05,NNE,31,0.0,0.0,28,0.00,CLR,,0.00,WeatherDisplay:10.37,2013-10-21 22:41:00,
2013-10-21 18:46:00,54.9,22.3,30.05,NNE,31,0.0,0.0,28,0.00,CLR,,0.00,WeatherDisplay:10.37,2013-10-21 22:46:00,
2013-10-21 18:51:00,54.5,22.0,30.05,NNE,31,0.0,0.0,28,0.00,CLR,,0.00,WeatherDisplay:10.37,2013-10-21 22:51:00,
2013-10-21 18:56:00,54.0,21.6,30.05,NNE,31,0.0,0.0,28,0.00,CLR,,0.00,WeatherDisplay:10.37,2013-10-21 22:56:00,
2013-10-21 19:01:00,53.6,21.2,30.05,NE,47,0.0,0.0,28,0.00,CLR,,0.00,WeatherDisplay:10.37,2013-10-21 23:01:00,
2013-10-21 19:06:00,53.4,21.1,30.05,NE,47,0.0,0.0,28,0.00,CLR,,0.00,WeatherDisplay:10.37,2013-10-21 23:06:00,
2013-10-21 19:11:00,53.2,20.9,30.05,NE,47,0.0,0.0,28,0.00,CLR,,0.00,WeatherDisplay:10.37,2013-10-21 23:11:00,
2013-10-21 19:16:00,53.1,20.8,30.05,NE,47,0.0,0.0,28,0.00,CLR,,0.00,WeatherDisplay:10.37,2013-10-21 23:16:00,
2013-10-21 19:21:00,52.9,20.6,30.05,NE,47,0.0,0.0,28,0.00,CLR,,0.00,WeatherDisplay:10.37,2013-10-21 23:21:00,
2013-10-21 19:26:00,52.5,20.3,30.05,NE,47,0.0,0.0,28,0.00,CLR,,0.00,WeatherDisplay:10.37,2013-10-21 23:26:00,
2013-10-21 19:31:00,52.2,20.0,30.05,NE,47,0.0,0.0,28,0.00,CLR,,0.00,WeatherDisplay:10.37,2013-10-21 23:31:00,
2013-10-21 19:36:00,51.8,19.7,30.05,NE,47,0.0,0.0,28,0.00,CLR,,0.00,WeatherDisplay:10.37,2013-10-21 23:36:00,
2013-10-21 19:41:00,51.6,20.4,30.05,NE,47,0.0,0.0,29,0.00,CLR,,0.00,WeatherDisplay:10.37,2013-10-21 23:41:00,
2013-10-21 19:46:00,51.4,20.2,30.05,NE,47,0.0,0.0,29,0.00,CLR,,0.00,WeatherDisplay:10.37,2013-10-21 23:46:00,
2013-10-21 19:51:00,51.3,20.0,30.05,NE,47,0.0,0.0,29,0.00,CLR,,0.00,WeatherDisplay:10.37,2013-10-21 23:51:00,
2013-10-21 19:56:00,51.1,19.9,30.05,NE,47,0.0,0.0,29,0.00,CLR,,0.00,WeatherDisplay:10.37,2013-10-21 23:56:00,
2013-10-21 20:01:00,50.9,19.7,30.05,NE,47,0.0,0.0,29,0.00,CLR,,0.00,WeatherDisplay:10.37,2013-10-22 00:01:00,
2013-10-21 20:06:00,50.5,19.4,30.05,NE,47,0.0,0.0,29,0.00,CLR,,0.00,WeatherDisplay:10.37,2013-10-22 00:06:00,
2013-10-21 20:11:00,50.4,19.3,30.05,NE,47,0.0,0.0,29,0.00,CLR,,0.00,WeatherDisplay:10.37,2013-10-22 00:11:00,
2013-10-21 20:16:00,50.0,18.9,30.05,NE,47,0.0,0.0,29,0.00,CLR,,0.00,WeatherDisplay:10.37,2013-10-22 00:16:00,
2013-10-21 20:21:00,49.8,18.8,30.05,NE,47,0.0,0.0,29,0.00,CLR,,0.00,WeatherDisplay:10.37,2013-10-22 00:21:00,
2013-10-21 20:26:00,49.6,18.6,30.05,NE,47,0.0,0.0,29,0.00,CLR,,0.00,WeatherDisplay:10.37,2013-10-22 00:26:00,
2013-10-21 20:31:00,49.5,18.5,30.05,NE,47,0.0,0.0,29,0.00,CLR,,0.00,WeatherDisplay:10.37,2013-10-22 00:31:00,
2013-10-21 20:36:00,49.3,18.3,30.05,NE,47,0.0,0.0,29,0.00,CLR,,0.00,WeatherDisplay:10.37,2013-10-22 00:36:00,
2013-10-21 20:41:00,49.3,18.3,30.05,NE,47,0.0,0.0,29,0.00,CLR,,0.00,WeatherDisplay:10.37,2013-10-22 00:41:00,
2013-10-21 20:46:00,49.1,18.2,30.05,NE,47,0.0,0.0,29,0.00,CLR,,0.00,WeatherDisplay:10.37,2013-10-22 00:46:00,
2013-10-21 20:51:00,49.1,18.2,30.05,NE,47,0.0,0.0,29,0.00,CLR,,0.00,WeatherDisplay:10.37,2013-10-22 00:51:00,
2013-10-21 20:56:00,49.1,18.2,30.05,NE,47,0.0,0.0,29,0.00,CLR,,0.00,WeatherDisplay:10.37,2013-10-22 00:56:00,
2013-10-21 21:01:00,49.1,18.2,30.05,NE,47,0.0,0.0,29,0.00,CLR,,0.00,WeatherDisplay:10.37,2013-10-22 01:01:00,
2013-10-21 21:06:00,49.1,18.2,30.05,NE,47,0.0,0.0,29,0.00,CLR,,0.00,WeatherDisplay:10.37,2013-10-22 01:06:00,
2013-10-21 21:11:00,49.1,18.2,30.05,NE,47,0.0,0.0,29,0.00,CLR,,0.00,WeatherDisplay:10.37,2013-10-22 01:11:00,
2013-10-21 21:16:00,49.3,18.3,30.05,NE,47,0.0,0.0,29,0.00,CLR,,0.00,WeatherDisplay:10.37,2013-10-22 01:16:00,
2013-10-21 21:21:00,49.6,18.6,30.05,NE,47,0.0,0.0,29,0.00,CLR,,0.00,WeatherDisplay:10.37,2013-10-22 01:21:00,
2013-10-21 21:26:00,49.6,20.2,30.05,NE,47,0.0,0.0,31,0.00,CLR,,0.00,WeatherDisplay:10.37,2013-10-22 01:26:00,
2013-10-21 21:31:00,49.8,18.8,30.05,NE,47,0.0,0.0,29,0.00,CLR,,0.00,WeatherDisplay:10.37,2013-10-22 01:31:00,
2013-10-21 21:36:00,50.0,20.5,30.05,NE,47,0.0,0.0,31,0.00,CLR,,0.00,WeatherDisplay:10.37,2013-10-22 01:36:00,
2013-10-21 21:41:00,50.0,18.9,30.05,NE,47,0.0,0.0,29,0.00,CLR,,0.00,WeatherDisplay:10.37,2013-10-22 01:41:00,
2013-10-21 21:46:00,50.0,18.9,30.05,NE,47,0.0,0.0,29,0.00,CLR,,0.00,WeatherDisplay:10.37,2013-10-22 01:46:00,
2013-10-21 21:51:00,50.0,18.9,30.05,NE,47,0.0,0.0,29,0.00,CLR,,0.00,WeatherDisplay:10.37,2013-10-22 01:51:00,
2013-10-21 21:56:00,49.8,18.8,30.05,NE,47,0.0,0.0,29,0.00,CLR,,0.00,WeatherDisplay:10.37,2013-10-22 01:56:00,
2013-10-21 21:58:00,49.8,18.8,30.05,NE,47,0.0,0.0,29,0.00,CLR,,0.00,WeatherDisplay:10.37,2013-10-22 01:58:00,
2013-10-21 22:03:00,49.6,18.6,30.05,NE,47,0.0,0.0,29,0.00,CLR,,0.00,WeatherDisplay:10.37,2013-10-22 02:03:00,
2013-10-21 22:08:00,49.6,18.6,30.05,NE,47,0.0,0.0,29,0.00,CLR,,0.00,WeatherDisplay:10.37,2013-10-22 02:08:00,
2013-10-21 22:13:00,49.6,18.6,30.05,NE,47,0.0,0.0,29,0.00,CLR,,0.00,WeatherDisplay:10.37,2013-10-22 02:13:00,
2013-10-21 22:18:00,49.5,18.5,30.05,NE,47,0.0,0.0,29,0.00,CLR,,0.00,WeatherDisplay:10.37,2013-10-22 02:18:00,
2013-10-21 22:23:00,49.3,18.3,30.05,NE,47,0.0,0.0,29,0.00,CLR,,0.00,WeatherDisplay:10.37,2013-10-22 02:23:00,
2013-10-21 22:28:00,49.3,18.3,30.05,NE,47,0.0,0.0,29,0.00,CLR,,0.00,WeatherDisplay:10.37,2013-10-22 02:28:00,
2013-10-21 22:33:00,49.3,18.3,30.05,NE,47,0.0,0.0,29,0.00,CLR,,0.00,WeatherDisplay:10.37,2013-10-22 02:33:00,
2013-10-21 22:38:00,49.1,18.2,30.05,NE,47,0.0,0.0,29,0.00,CLR,,0.00,WeatherDisplay:10.37,2013-10-22 02:38:00,
2013-10-21 22:43:00,49.1,18.2,30.05,NE,47,0.0,0.0,29,0.00,CLR,,0.00,WeatherDisplay:10.37,2013-10-22 02:43:00,
2013-10-21 22:48:00,48.9,18.0,30.05,NE,47,0.0,0.0,29,0.00,CLR,,0.00,WeatherDisplay:10.37,2013-10-22 02:48:00,
2013-10-21 22:53:00,48.9,18.0,30.05,NE,47,0.0,0.0,29,0.00,CLR,,0.00,WeatherDisplay:10.37,2013-10-22 02:53:00,
2013-10-21 22:58:00,49.1,18.2,30.05,NE,47,0.0,0.0,29,0.00,CLR,,0.00,WeatherDisplay:10.37,2013-10-22 02:58:00,
2013-10-21 23:03:00,48.9,18.0,30.02,NE,47,0.0,0.0,29,0.00,CLR,,0.00,WeatherDisplay:10.37,2013-10-22 03:03:00,
2013-10-21 23:08:00,48.7,17.9,30.02,NE,47,0.0,0.0,29,0.00,CLR,,0.00,WeatherDisplay:10.37,2013-10-22 03:08:00,
2013-10-21 23:13:00,48.6,19.3,30.02,NE,47,0.0,0.0,31,0.00,CLR,,0.00,WeatherDisplay:10.37,2013-10-22 03:13:00,
2013-10-21 23:18:00,48.6,19.3,30.02,NE,47,0.0,0.0,31,0.00,CLR,,0.00,WeatherDisplay:10.37,2013-10-22 03:18:00,
2013-10-21 23:23:00,48.4,19.1,30.02,NE,47,0.0,0.0,31,0.00,CLR,,0.00,WeatherDisplay:10.37,2013-10-22 03:23:00,
2013-10-21 23:28:00,48.4,19.1,30.02,NE,47,0.0,0.0,31,0.00,CLR,,0.00,WeatherDisplay:10.37,2013-10-22 03:28:00,
2013-10-21 23:33:00,48.2,18.9,30.02,NE,47,0.0,0.0,31,0.00,CLR,,0.00,WeatherDisplay:10.37,2013-10-22 03:33:00,
2013-10-21 23:38:00,48.2,18.9,30.02,NE,47,0.0,0.0,31,0.00,CLR,,0.00,WeatherDisplay:10.37,2013-10-22 03:38:00,
2013-10-21 23:43:00,48.0,19.5,30.02,NE,47,0.0,0.0,32,0.00,CLR,,0.00,WeatherDisplay:10.37,2013-10-22 03:43:00,
2013-10-21 23:48:00,47.8,19.4,30.02,NE,47,0.0,0.0,32,0.00,CLR,,0.00,WeatherDisplay:10.37,2013-10-22 03:48:00,
2013-10-21 23:53:00,47.7,19.2,30.02,NE,47,0.0,0.0,32,0.00,CLR,,0.00,WeatherDisplay:10.37,2013-10-22 03:53:00,
2013-10-21 23:58:00,47.5,19.0,30.02,NE,47,0.0,0.0,32,0.00,CLR,,0.00,WeatherDisplay:10.37,2013-10-22 03:58:00,